Starlink 33952

operational
NORAD ID: 64046 Int'l Des: 2025-102 Owner: SPXS Country: US Constellation: starlink
LEOCIRCULAR

Über Starlink 33952

Beschreibung wird geladen...

Live-Position

3D-Globus wird geladen...

Nächste Überflüge

Höhenverlauf

Altitude vs Time

uPlot chart will show altitude changes over time

Zweizeiliger Elementsatz

1 64046U 25102AA 26062.47815183 .00006004 00000-0 51040-3 0 9996
2 64046 70.0021 130.0394 0003576 268.7784 91.2965 14.98341924 45023
Epoch: 3. März 2026 • Age: 28 hours

Aktueller Status

Höhe 582.3 km
Geschwindigkeit 7.57 km/s
Subsatellitenpunkt 53.94°N, 56.03°E
Startdatum 16. Mai 2025
Alter 0.7 years
Typ internet

Technische Details

Klassifizierung Payload
Masse 575.00 kg
Trockenmasse 530.00 kg
Gesamtmasse 575.00 kg
Länge 0.30 m
Durchmesser 4.10 m
Spannweite 29.00 m
Form Box + pan
Hersteller SPXS
Bus-Typ Starlink V2MO
Phasenstatus In Orbit
Besitzer/Staat SPXS/US

Große Konstellationen

Loading constellations...